Time,TemperatureF,DewpointF,PressureIn,WindDirection,WindDirectionDegrees,WindSpeedMPH,WindSpeedGustMPH,Humidity,HourlyPrecipIn,Conditions,Clouds,dailyrainin,SoftwareType,DateUTC
2013-01-14 00:07:00,46.7,45.0,29.95,NNE,23,2.0,-999.0,95,-99.99,,,0.00,weatherlink.com 1.10,2013-01-14 06:07:00,
2013-01-14 00:22:00,45.7,44.0,29.94,North,4,5.0,-999.0,95,-99.99,,,0.02,weatherlink.com 1.10,2013-01-14 06:22:00,
2013-01-14 00:37:00,45.4,44.0,29.94,North,0,3.0,-999.0,95,-99.99,,,0.03,weatherlink.com 1.10,2013-01-14 06:37:00,
2013-01-14 00:52:00,45.1,44.0,29.95,North,3,5.0,-999.0,95,-99.99,,,0.03,weatherlink.com 1.10,2013-01-14 06:52:00,
2013-01-14 01:07:00,44.6,43.0,29.94,North,350,4.0,-999.0,95,-99.99,,,0.03,weatherlink.com 1.10,2013-01-14 07:07:00,
2013-01-14 01:22:00,44.1,43.0,29.93,NNW,333,7.0,-999.0,95,-99.99,,,0.03,weatherlink.com 1.10,2013-01-14 07:22:00,
2013-01-14 01:37:00,43.6,42.0,29.95,NNW,328,5.0,-999.0,95,-99.99,,,0.03,weatherlink.com 1.10,2013-01-14 07:37:00,
2013-01-14 01:52:00,43.2,42.0,29.94,North,349,5.0,-999.0,95,-99.99,,,0.03,weatherlink.com 1.10,2013-01-14 07:52:00,
2013-01-14 02:07:00,43.1,42.0,29.95,North,349,3.0,-999.0,95,-99.99,,,0.03,weatherlink.com 1.10,2013-01-14 08:07:00,
2013-01-14 02:22:00,42.8,42.0,29.95,North,357,11.0,-999.0,95,-99.99,,,0.03,weatherlink.com 1.10,2013-01-14 08:22:00,
2013-01-14 02:37:00,42.5,41.0,29.94,NNW,339,4.0,-999.0,95,-99.99,,,0.03,weatherlink.com 1.10,2013-01-14 08:37:00,
2013-01-14 02:52:00,42.5,41.0,29.94,North,356,5.0,-999.0,95,-99.99,,,0.03,weatherlink.com 1.10,2013-01-14 08:52:00,
2013-01-14 03:07:00,42.3,41.0,29.95,North,357,12.0,-999.0,95,-99.99,,,0.03,weatherlink.com 1.10,2013-01-14 09:07:00,
2013-01-14 03:22:00,42.3,41.0,29.95,WNW,288,7.0,-999.0,95,-99.99,,,0.03,weatherlink.com 1.10,2013-01-14 09:22:00,
2013-01-14 03:38:00,42.2,41.0,29.95,North,0,6.0,-999.0,95,-99.99,,,0.03,weatherlink.com 1.10,2013-01-14 09:38:00,
2013-01-14 03:53:00,42.2,41.0,29.95,North,3,5.0,-999.0,95,-99.99,,,0.04,weatherlink.com 1.10,2013-01-14 09:53:00,
2013-01-14 04:08:00,41.9,41.0,29.95,North,0,7.0,-999.0,95,-99.99,,,0.04,weatherlink.com 1.10,2013-01-14 10:08:00,
2013-01-14 04:23:00,41.8,41.0,29.94,North,0,1.0,-999.0,96,-99.99,,,0.05,weatherlink.com 1.10,2013-01-14 10:23:00,
2013-01-14 04:38:00,41.8,41.0,29.94,North,0,4.0,-999.0,96,-99.99,,,0.05,weatherlink.com 1.10,2013-01-14 10:38:00,
2013-01-14 04:53:00,41.3,40.0,29.96,NNE,14,5.0,-999.0,96,-99.99,,,0.05,weatherlink.com 1.10,2013-01-14 10:53:00,
2013-01-14 05:08:00,41.1,40.0,29.96,North,0,2.0,-999.0,96,-99.99,,,0.05,weatherlink.com 1.10,2013-01-14 11:08:00,
2013-01-14 05:23:00,40.9,40.0,29.96,North,0,5.0,-999.0,96,-99.99,,,0.05,weatherlink.com 1.10,2013-01-14 11:23:00,
2013-01-14 05:38:00,40.8,40.0,29.96,North,359,5.0,-999.0,96,-99.99,,,0.05,weatherlink.com 1.10,2013-01-14 11:38:00,
2013-01-14 05:53:00,40.9,40.0,29.98,North,0,6.0,-999.0,96,-99.99,,,0.05,weatherlink.com 1.10,2013-01-14 11:53:00,
2013-01-14 06:08:00,40.6,40.0,29.99,North,0,3.0,-999.0,96,-99.99,,,0.05,weatherlink.com 1.10,2013-01-14 12:08:00,
2013-01-14 06:23:00,40.5,40.0,30.00,NNW,342,4.0,-999.0,96,-99.99,,,0.06,weatherlink.com 1.10,2013-01-14 12:23:00,
2013-01-14 06:38:00,40.3,39.0,30.01,North,11,2.0,-999.0,96,-99.99,,,0.07,weatherlink.com 1.10,2013-01-14 12:38:00,
2013-01-14 06:53:00,40.3,39.0,30.00,NNW,342,3.0,-999.0,96,-99.99,,,0.08,weatherlink.com 1.10,2013-01-14 12:53:00,
2013-01-14 07:08:00,40.3,39.0,30.00,North,1,1.0,-999.0,96,-99.99,,,0.08,weatherlink.com 1.10,2013-01-14 13:08:00,
2013-01-14 07:23:00,40.3,39.0,30.01,North,357,3.0,-999.0,96,-99.99,,,0.08,weatherlink.com 1.10,2013-01-14 13:23:00,
2013-01-14 07:38:00,40.2,39.0,30.02,North,0,2.0,-999.0,96,-99.99,,,0.08,weatherlink.com 1.10,2013-01-14 13:38:00,
2013-01-14 07:53:00,40.1,39.0,30.03,NE,49,3.0,-999.0,96,-99.99,,,0.09,weatherlink.com 1.10,2013-01-14 13:53:00,
2013-01-14 08:08:00,40.1,39.0,30.02,North,359,2.0,-999.0,96,-99.99,,,0.10,weatherlink.com 1.10,2013-01-14 14:08:00,
2013-01-14 08:23:00,40.1,39.0,30.04,North,359,3.0,-999.0,96,-99.99,,,0.14,weatherlink.com 1.10,2013-01-14 14:23:00,
2013-01-14 08:38:00,40.1,39.0,30.04,North,0,7.0,-999.0,96,-99.99,,,0.22,weatherlink.com 1.10,2013-01-14 14:38:00,
2013-01-14 08:53:00,40.1,39.0,30.04,North,0,2.0,-999.0,96,-99.99,,,0.31,weatherlink.com 1.10,2013-01-14 14:53:00,
2013-01-14 09:08:00,40.2,39.0,30.04,North,359,2.0,-999.0,96,-99.99,,,0.34,weatherlink.com 1.10,2013-01-14 15:08:00,
2013-01-14 09:23:00,40.5,40.0,30.05,North,357,1.0,-999.0,96,-99.99,,,0.36,weatherlink.com 1.10,2013-01-14 15:23:00,
2013-01-14 09:38:00,40.5,40.0,30.05,North,0,1.0,-999.0,96,-99.99,,,0.39,weatherlink.com 1.10,2013-01-14 15:38:00,
2013-01-14 09:53:00,40.5,40.0,30.03,North,0,2.0,-999.0,96,-99.99,,,0.42,weatherlink.com 1.10,2013-01-14 15:53:00,
2013-01-14 10:08:00,40.6,40.0,30.03,North,354,6.0,-999.0,96,-99.99,,,0.46,weatherlink.com 1.10,2013-01-14 16:08:00,
2013-01-14 10:23:00,40.9,40.0,30.02,North,357,1.0,-999.0,96,-99.99,,,0.51,weatherlink.com 1.10,2013-01-14 16:23:00,
2013-01-14 10:38:00,41.2,40.0,30.03,North,0,0.0,-999.0,96,-99.99,,,0.52,weatherlink.com 1.10,2013-01-14 16:38:00,
2013-01-14 10:53:00,41.8,41.0,30.01,SE,128,1.0,-999.0,96,-99.99,,,0.54,weatherlink.com 1.10,2013-01-14 16:53:00,
2013-01-14 11:08:00,41.5,41.0,30.01,North,352,0.0,-999.0,96,-99.99,,,0.55,weatherlink.com 1.10,2013-01-14 17:08:00,
2013-01-14 11:23:00,41.3,40.0,30.00,North,350,2.0,-999.0,96,-99.99,,,0.56,weatherlink.com 1.10,2013-01-14 17:23:00,
2013-01-14 11:38:00,41.5,41.0,29.99,North,350,2.0,-999.0,96,-99.99,,,0.57,weatherlink.com 1.10,2013-01-14 17:38:00,
2013-01-14 11:53:00,41.8,41.0,29.98,North,350,1.0,-999.0,96,-99.99,,,0.57,weatherlink.com 1.10,2013-01-14 17:53:00,
2013-01-14 12:08:00,42.1,41.0,29.98,North,350,0.0,-999.0,96,-99.99,,,0.57,weatherlink.com 1.10,2013-01-14 18:08:00,
2013-01-14 12:23:00,42.5,42.0,29.97,North,350,0.0,-999.0,96,-99.99,,,0.58,weatherlink.com 1.10,2013-01-14 18:23:00,
2013-01-14 12:38:00,42.8,42.0,29.97,North,0,0.0,-999.0,96,-99.99,,,0.58,weatherlink.com 1.10,2013-01-14 18:38:00,
2013-01-14 12:53:00,43.1,42.0,29.96,North,0,0.0,-999.0,96,-99.99,,,0.58,weatherlink.com 1.10,2013-01-14 18:53:00,
2013-01-14 13:08:00,43.2,42.0,29.95,NE,42,1.0,-999.0,97,-99.99,,,0.59,weatherlink.com 1.10,2013-01-14 19:08:00,
2013-01-14 13:23:00,44.1,43.0,29.95,ESE,103,2.0,-999.0,97,-99.99,,,0.59,weatherlink.com 1.10,2013-01-14 19:23:00,
2013-01-14 13:38:00,44.3,44.0,29.95,SE,124,0.0,-999.0,97,-99.99,,,0.60,weatherlink.com 1.10,2013-01-14 19:38:00,
2013-01-14 13:53:00,44.5,44.0,29.95,NW,319,3.0,-999.0,97,-99.99,,,0.63,weatherlink.com 1.10,2013-01-14 19:53:00,
2013-01-14 14:08:00,43.5,43.0,29.98,North,0,1.0,-999.0,96,-99.99,,,0.67,weatherlink.com 1.10,2013-01-14 20:08:00,
2013-01-14 14:23:00,42.3,41.0,30.00,North,356,7.0,-999.0,96,-99.99,,,0.69,weatherlink.com 1.10,2013-01-14 20:23:00,
2013-01-14 14:38:00,41.3,40.0,30.00,NNE,30,2.0,-999.0,96,-99.99,,,0.69,weatherlink.com 1.10,2013-01-14 20:38:00,
2013-01-14 14:53:00,40.5,40.0,30.03,North,352,3.0,-999.0,97,-99.99,,,0.71,weatherlink.com 1.10,2013-01-14 20:53:00,
2013-01-14 15:08:00,39.8,39.0,30.03,NNE,14,2.0,-999.0,97,-99.99,,,0.71,weatherlink.com 1.10,2013-01-14 21:08:00,
2013-01-14 15:23:00,39.1,38.0,30.04,North,3,2.0,-999.0,97,-99.99,,,0.71,weatherlink.com 1.10,2013-01-14 21:23:00,
2013-01-14 15:38:00,37.8,37.0,30.05,North,359,5.0,-999.0,96,-99.99,,,0.72,weatherlink.com 1.10,2013-01-14 21:38:00,
2013-01-14 15:53:00,37.0,36.0,30.06,North,354,3.0,-999.0,96,-99.99,,,0.72,weatherlink.com 1.10,2013-01-14 21:53:00,
2013-01-14 16:09:00,36.5,36.0,30.07,NE,55,2.0,-999.0,96,-99.99,,,0.72,weatherlink.com 1.10,2013-01-14 22:09:00,
2013-01-14 16:24:00,35.5,35.0,30.08,North,0,7.0,-999.0,96,-99.99,,,0.72,weatherlink.com 1.10,2013-01-14 22:24:00,
2013-01-14 16:39:00,35.0,34.0,30.08,North,357,1.0,-999.0,96,-99.99,,,0.72,weatherlink.com 1.10,2013-01-14 22:39:00,
2013-01-14 16:54:00,34.7,34.0,30.09,North,0,10.0,-999.0,96,-99.99,,,0.72,weatherlink.com 1.10,2013-01-14 22:54:00,
2013-01-14 17:09:00,34.6,34.0,30.09,North,6,5.0,-999.0,96,-99.99,,,0.72,weatherlink.com 1.10,2013-01-14 23:09:00,
2013-01-14 17:24:00,35.0,34.0,30.08,NNE,14,4.0,-999.0,96,-99.99,,,0.72,weatherlink.com 1.10,2013-01-14 23:24:00,
2013-01-14 17:39:00,35.9,35.0,30.09,NNW,347,2.0,-999.0,96,-99.99,,,0.73,weatherlink.com 1.10,2013-01-14 23:39:00,
2013-01-14 17:54:00,35.6,35.0,30.08,NNW,344,1.0,-999.0,96,-99.99,,,0.74,weatherlink.com 1.10,2013-01-14 23:54:00,
2013-01-14 18:09:00,35.5,35.0,30.08,North,359,2.0,-999.0,96,-99.99,,,0.74,weatherlink.com 1.10,2013-01-15 00:09:00,
2013-01-14 18:24:00,35.3,34.0,30.08,North,357,2.0,-999.0,96,-99.99,,,0.74,weatherlink.com 1.10,2013-01-15 00:24:00,
2013-01-14 18:39:00,35.5,35.0,30.09,North,7,0.0,-999.0,96,-99.99,,,0.74,weatherlink.com 1.10,2013-01-15 00:39:00,
2013-01-14 18:54:00,35.5,35.0,30.09,North,353,5.0,-999.0,96,-99.99,,,0.74,weatherlink.com 1.10,2013-01-15 00:54:00,
2013-01-14 19:09:00,35.5,35.0,30.09,North,359,1.0,-999.0,96,-99.99,,,0.74,weatherlink.com 1.10,2013-01-15 01:09:00,
2013-01-14 19:24:00,35.5,35.0,30.09,North,357,3.0,-999.0,96,-99.99,,,0.75,weatherlink.com 1.10,2013-01-15 01:24:00,
2013-01-14 19:39:00,35.3,34.0,30.09,North,0,1.0,-999.0,96,-99.99,,,0.76,weatherlink.com 1.10,2013-01-15 01:39:00,
2013-01-14 19:54:00,35.2,34.0,30.08,North,0,5.0,-999.0,96,-99.99,,,0.77,weatherlink.com 1.10,2013-01-15 01:54:00,
2013-01-14 20:09:00,35.3,34.0,30.08,North,357,3.0,-999.0,96,-99.99,,,0.79,weatherlink.com 1.10,2013-01-15 02:09:00,
2013-01-14 20:24:00,35.5,35.0,30.07,SE,124,2.0,-999.0,96,-99.99,,,0.82,weatherlink.com 1.10,2013-01-15 02:24:00,
2013-01-14 20:39:00,35.9,35.0,30.06,NE,55,0.0,-999.0,96,-99.99,,,0.84,weatherlink.com 1.10,2013-01-15 02:39:00,
2013-01-14 20:54:00,36.3,36.0,30.05,NE,54,0.0,-999.0,97,-99.99,,,0.85,weatherlink.com 1.10,2013-01-15 02:54:00,
2013-01-14 21:09:00,36.3,35.0,30.03,NE,54,0.0,-999.0,96,-99.99,,,0.86,weatherlink.com 1.10,2013-01-15 03:09:00,
2013-01-14 21:24:00,36.6,36.0,30.03,NE,54,1.0,-999.0,96,-99.99,,,0.87,weatherlink.com 1.10,2013-01-15 03:24:00,
2013-01-14 21:39:00,36.8,36.0,30.02,NE,54,0.0,-999.0,96,-99.99,,,0.89,weatherlink.com 1.10,2013-01-15 03:39:00,
2013-01-14 21:54:00,37.3,37.0,30.02,NE,54,0.0,-999.0,97,-99.99,,,0.91,weatherlink.com 1.10,2013-01-15 03:54:00,
2013-01-14 22:09:00,38.0,37.0,30.01,ESE,116,2.0,-999.0,97,-99.99,,,0.93,weatherlink.com 1.10,2013-01-15 04:09:00,
2013-01-14 22:24:00,38.6,38.0,29.99,NE,40,0.0,-999.0,97,-99.99,,,0.94,weatherlink.com 1.10,2013-01-15 04:24:00,
2013-01-14 22:39:00,38.9,38.0,29.98,ESE,102,2.0,-999.0,97,-99.99,,,0.96,weatherlink.com 1.10,2013-01-15 04:39:00,
2013-01-14 22:54:00,39.5,39.0,29.99,North,0,1.0,-999.0,97,-99.99,,,0.97,weatherlink.com 1.10,2013-01-15 04:54:00,
2013-01-14 23:09:00,39.8,39.0,29.98,ENE,78,1.0,-999.0,97,-99.99,,,0.99,weatherlink.com 1.10,2013-01-15 05:09:00,
2013-01-14 23:24:00,39.9,39.0,29.98,SE,126,1.0,-999.0,97,-99.99,,,1.02,weatherlink.com 1.10,2013-01-15 05:24:00,
2013-01-14 23:39:00,40.1,39.0,29.96,NE,42,0.0,-999.0,97,-99.99,,,1.04,weatherlink.com 1.10,2013-01-15 05:39:00,
2013-01-14 23:54:00,40.3,40.0,29.98,NNE,13,3.0,-999.0,97,-99.99,,,1.05,weatherlink.com 1.10,2013-01-15 05:54:00,